AFL1219 UWWW-UUEE

Flight info

Callsign AFL1219
Flight time N/A
Altitude 36000
Route REDMI8G REDMI T173 BMK T750 OKSUD T787 OTKOL T784 LARNO T291 URIDU L158 DIMGI DIMGI3E
Aircraft A320/M-SDE3FGHIRWY/LB1

Departure

Time 2026-04-27 13:45
Airport Kurumoch International Airport (UWWW)

Arrival

Time N/A
Airport Sheremetyevo International Airport (UUEE)
Time Latitude Longitude Altitude Speed Heading
2026-04-27 13:16 53.51138 50.15818 447 ft 0 kts 332°
2026-04-27 13:33 53.51120 50.15834 447 ft 4 kts 332°
2026-04-27 13:34 53.51102 50.15851 447 ft 4 kts 339°
2026-04-27 13:34 53.51077 50.15858 447 ft 4 kts 15°
2026-04-27 13:34 53.51055 50.15837 447 ft 4 kts 53°
2026-04-27 13:34 53.51048 50.15820 447 ft 0 kts 62°
2026-04-27 13:41 53.51048 50.15821 447 ft 1 kts 62°
2026-04-27 13:41 53.51074 50.15902 447 ft 16 kts 62°
2026-04-27 13:41 53.51139 50.16099 447 ft 19 kts 61°
2026-04-27 13:42 53.51200 50.16287 447 ft 17 kts 61°
2026-04-27 13:42 53.51254 50.16453 447 ft 15 kts 62°
2026-04-27 13:42 53.51301 50.16599 447 ft 13 kts 62°
2026-04-27 13:42 53.51342 50.16728 447 ft 12 kts 62°
2026-04-27 13:43 53.51378 50.16840 447 ft 10 kts 62°
2026-04-27 13:43 53.51416 50.16957 448 ft 11 kts 61°
2026-04-27 13:43 53.51444 50.17045 449 ft 7 kts 64°
2026-04-27 13:43 53.51435 50.17100 449 ft 4 kts 144°
2026-04-27 13:44 53.51421 50.17107 449 ft 0 kts 165°
2026-04-27 13:44 53.51411 50.17112 449 ft 9 kts 164°
2026-04-27 13:44 53.51098 50.17295 441 ft 89 kts 161°
2026-04-27 13:45 53.50289 50.17776 453 ft 153 kts 161°
2026-04-27 13:45 53.49304 50.18395 1307 ft 147 kts 165°
2026-04-27 13:45 53.48338 50.18963 1957 ft 154 kts 168°
2026-04-27 13:45 53.47253 50.19586 2288 ft 176 kts 168°
2026-04-27 13:46 53.46024 50.20297 2626 ft 196 kts 167°
2026-04-27 13:46 53.44716 50.21070 3332 ft 200 kts 167°
2026-04-27 13:46 53.43392 50.21863 4066 ft 203 kts 168°
2026-04-27 13:46 53.42055 50.22660 4833 ft 204 kts 171°
2026-04-27 13:47 53.40715 50.22815 5555 ft 188 kts 206°
2026-04-27 13:47 53.39741 50.21390 6069 ft 199 kts 239°
2026-04-27 13:47 53.39182 50.19208 6680 ft 208 kts 245°
2026-04-27 13:47 53.38711 50.16890 7421 ft 212 kts 245°
2026-04-27 13:48 53.38250 50.14526 8206 ft 215 kts 244°
2026-04-27 13:48 53.37777 50.12134 8972 ft 217 kts 243°
2026-04-27 13:48 53.37297 50.09751 9686 ft 220 kts 242°
2026-04-27 13:48 53.37136 50.07101 10367 ft 248 kts 269°
2026-04-27 13:49 53.38003 50.04377 11026 ft 289 kts 303°
2026-04-27 13:49 53.39720 50.02358 11621 ft 315 kts 325°
2026-04-27 13:49 53.41803 50.00964 12210 ft 329 kts 335°
2026-04-27 13:49 53.44033 49.99875 12808 ft 338 kts 338°
2026-04-27 13:50 53.46333 49.98846 13399 ft 345 kts 338°
2026-04-27 13:50 53.48665 49.97742 13949 ft 350 kts 336°
2026-04-27 13:50 53.50998 49.96524 14629 ft 350 kts 334°
2026-04-27 13:50 53.53306 49.95220 15298 ft 350 kts 333°
2026-04-27 13:51 53.55610 49.93847 15888 ft 353 kts 332°
2026-04-27 13:51 53.57973 49.92386 16104 ft 371 kts 332°
2026-04-27 13:51 53.60462 49.90819 16242 ft 391 kts 332°
2026-04-27 13:51 53.63076 49.89179 16371 ft 410 kts 333°
2026-04-27 13:52 53.65810 49.87483 16501 ft 427 kts 333°
2026-04-27 13:52 53.68623 49.85758 16711 ft 442 kts 334°
2026-04-27 13:52 53.71538 49.83994 17149 ft 448 kts 333°
2026-04-27 13:52 53.74352 49.81801 17626 ft 443 kts 321°
2026-04-27 13:53 53.78930 49.75252 18688 ft 421 kts 297°
2026-04-27 13:53 53.80575 49.71246 19166 ft 409 kts 287°
2026-04-27 13:53 53.81779 49.66974 19648 ft 396 kts 277°
2026-04-27 13:54 53.82716 49.62588 20133 ft 396 kts 276°
2026-04-27 13:54 53.83648 49.58191 20628 ft 398 kts 276°
2026-04-27 13:54 53.84586 49.53771 21109 ft 400 kts 276°
2026-04-27 13:54 53.85535 49.49324 21573 ft 403 kts 276°
2026-04-27 13:55 53.86492 49.44852 22049 ft 405 kts 276°
2026-04-27 13:55 53.87452 49.40355 22515 ft 407 kts 276°
2026-04-27 13:55 53.88415 49.35833 22971 ft 409 kts 275°
2026-04-27 13:55 53.89379 49.31287 23438 ft 411 kts 275°
2026-04-27 13:56 53.90336 49.26759 23760 ft 414 kts 275°
2026-04-27 13:56 53.91304 49.22147 24101 ft 416 kts 275°
2026-04-27 13:56 53.92274 49.17507 24452 ft 418 kts 275°
2026-04-27 13:56 53.93249 49.12847 24799 ft 420 kts 275°
2026-04-27 13:57 53.94284 49.08174 25136 ft 430 kts 280°
2026-04-27 13:57 53.95733 49.03614 25459 ft 448 kts 290°
2026-04-27 13:57 53.96894 49.00609 25685 ft 450 kts 290°
2026-04-27 13:57 53.98612 48.96158 26031 ft 452 kts 290°
2026-04-27 13:58 54.00331 48.91677 26356 ft 453 kts 290°
2026-04-27 13:58 54.02046 48.87173 26689 ft 455 kts 290°
2026-04-27 13:58 54.03766 48.82632 27068 ft 458 kts 291°
2026-04-27 13:58 54.05471 48.78116 27364 ft 460 kts 291°
2026-04-27 13:59 54.07206 48.73518 27673 ft 463 kts 291°
2026-04-27 13:59 54.08955 48.68891 27967 ft 465 kts 291°
2026-04-27 13:59 54.10711 48.64244 28262 ft 467 kts 291°
2026-04-27 13:59 54.12473 48.59581 28542 ft 468 kts 291°
2026-04-27 14:00 54.14237 48.54901 28816 ft 470 kts 292°
2026-04-27 14:00 54.16005 48.50194 29099 ft 471 kts 291°
2026-04-27 14:00 54.17773 48.45472 29356 ft 473 kts 291°
2026-04-27 14:00 54.19546 48.40721 29666 ft 476 kts 292°
2026-04-27 14:01 54.21331 48.35932 29874 ft 478 kts 292°
2026-04-27 14:01 54.23119 48.31129 30104 ft 478 kts 292°
2026-04-27 14:01 54.24877 48.26405 30420 ft 477 kts 292°
2026-04-27 14:01 54.26650 48.21617 30747 ft 475 kts 292°
2026-04-27 14:02 54.28383 48.16802 31058 ft 473 kts 291°
2026-04-27 14:02 54.30066 48.11984 31380 ft 471 kts 291°
2026-04-27 14:02 54.31731 48.07150 31705 ft 470 kts 291°
2026-04-27 14:02 54.33386 48.02328 32059 ft 469 kts 291°
2026-04-27 14:03 54.35044 47.97521 32448 ft 467 kts 293°
2026-04-27 14:03 54.36701 47.92733 32762 ft 466 kts 293°
2026-04-27 14:03 54.38358 47.87948 33078 ft 466 kts 293°
2026-04-27 14:03 54.40009 47.83182 33394 ft 465 kts 293°
2026-04-27 14:04 54.41629 47.78466 33681 ft 464 kts 293°
2026-04-27 14:04 54.43264 47.73690 33928 ft 463 kts 293°
2026-04-27 14:04 54.44899 47.68920 34157 ft 463 kts 294°
2026-04-27 14:04 54.46533 47.64157 34372 ft 463 kts 294°
2026-04-27 14:05 54.48168 47.59381 34583 ft 463 kts 294°
2026-04-27 14:05 54.49798 47.54601 34795 ft 463 kts 294°
2026-04-27 14:05 54.51425 47.49812 34995 ft 463 kts 294°
2026-04-27 14:05 54.53046 47.45039 35193 ft 463 kts 294°
2026-04-27 14:06 54.54675 47.40254 35374 ft 463 kts 294°
2026-04-27 14:06 54.56304 47.35477 35538 ft 463 kts 294°
2026-04-27 14:06 54.57927 47.30693 35589 ft 462 kts 294°
2026-04-27 14:07 54.61161 47.21113 35580 ft 462 kts 294°
2026-04-27 14:07 54.64373 47.11522 35612 ft 461 kts 294°
2026-04-27 14:08 54.67577 47.01902 35575 ft 462 kts 294°
2026-04-27 14:08 54.70728 46.92297 35565 ft 461 kts 293°
2026-04-27 14:09 54.73849 46.82592 35567 ft 461 kts 292°
2026-04-27 14:09 54.76959 46.72864 35555 ft 461 kts 293°
2026-04-27 14:10 54.80072 46.63125 35586 ft 461 kts 293°
2026-04-27 14:10 54.83643 46.53796 35567 ft 469 kts 303°
2026-04-27 14:11 54.87698 46.44928 35558 ft 469 kts 303°
2026-04-27 14:11 54.91750 46.36019 35557 ft 469 kts 303°
2026-04-27 14:12 54.95748 46.27147 35552 ft 469 kts 302°
2026-04-27 14:12 54.99771 46.18189 35547 ft 469 kts 303°
2026-04-27 14:13 55.03791 46.09224 35531 ft 469 kts 303°
2026-04-27 14:13 55.07794 46.00237 35525 ft 469 kts 303°
2026-04-27 14:14 55.11806 45.91229 35515 ft 469 kts 303°
2026-04-27 14:14 55.15807 45.82216 35539 ft 469 kts 303°
2026-04-27 14:15 55.19766 45.73242 35523 ft 469 kts 303°
2026-04-27 14:15 55.23752 45.64182 35516 ft 469 kts 303°
2026-04-27 14:16 55.27728 45.55125 35502 ft 469 kts 303°
2026-04-27 14:16 55.31689 45.46046 35507 ft 468 kts 303°
2026-04-27 14:17 55.35650 45.36952 35495 ft 468 kts 303°
2026-04-27 14:17 55.39596 45.27829 35487 ft 468 kts 303°
2026-04-27 14:18 55.43535 45.18697 35475 ft 468 kts 303°
2026-04-27 14:18 55.47446 45.09616 35456 ft 468 kts 303°
2026-04-27 14:19 55.51371 45.00460 35469 ft 468 kts 303°
2026-04-27 14:19 55.55041 44.91033 35445 ft 461 kts 292°
2026-04-27 14:20 55.57000 44.80414 35438 ft 451 kts 275°
2026-04-27 14:20 55.57416 44.69441 35431 ft 447 kts 269°
2026-04-27 14:21 55.57691 44.58445 35429 ft 448 kts 269°
2026-04-27 14:21 55.57969 44.47447 35429 ft 448 kts 269°
2026-04-27 14:22 55.58238 44.36430 35431 ft 449 kts 269°
2026-04-27 14:22 55.58490 44.25420 35425 ft 449 kts 269°
2026-04-27 14:23 55.58730 44.14388 35414 ft 449 kts 269°
2026-04-27 14:23 55.58957 44.03368 35412 ft 449 kts 269°
2026-04-27 14:24 55.59178 43.92342 35413 ft 448 kts 269°
2026-04-27 14:24 55.59606 43.81343 35414 ft 451 kts 278°
2026-04-27 14:25 55.61783 43.70886 35426 ft 459 kts 297°
2026-04-27 14:25 55.64995 43.61134 35402 ft 459 kts 296°
2026-04-27 14:26 55.68165 43.51399 35396 ft 459 kts 296°
2026-04-27 14:26 55.71338 43.41591 35376 ft 459 kts 296°
2026-04-27 14:27 55.74503 43.31767 35375 ft 458 kts 296°
2026-04-27 14:27 55.77651 43.21910 35370 ft 458 kts 294°
2026-04-27 14:28 55.79743 43.11390 35366 ft 450 kts 277°
2026-04-27 14:28 55.80431 43.00374 35359 ft 448 kts 272°
2026-04-27 14:29 55.81052 42.89360 35361 ft 448 kts 273°
2026-04-27 14:29 55.81671 42.78327 35340 ft 448 kts 273°
2026-04-27 14:30 55.82282 42.67292 35352 ft 448 kts 272°
2026-04-27 14:30 55.82877 42.56266 35352 ft 448 kts 272°
2026-04-27 14:31 55.83458 42.45209 35339 ft 448 kts 272°
2026-04-27 14:31 55.84030 42.34172 35348 ft 448 kts 273°
2026-04-27 14:32 55.84598 42.23133 35325 ft 448 kts 272°
2026-04-27 14:32 55.85155 42.12163 35324 ft 448 kts 273°
2026-04-27 14:33 55.85706 42.01123 35318 ft 448 kts 272°
2026-04-27 14:33 55.86239 41.90093 35329 ft 447 kts 272°
2026-04-27 14:34 55.86732 41.78981 35321 ft 446 kts 269°
2026-04-27 14:34 55.86487 41.67975 35321 ft 445 kts 265°
2026-04-27 14:35 55.86274 41.60689 35303 ft 445 kts 265°